sat.trackr.live / text

‹ back to catalog

STARLINK-31200

NORAD 58862 · 2024-019K

PAYLOAD ACTIVE UNKNOWN

§ Identity

Operator
Country
US
Launch date
2024-01-29
Launch site
AFETR
Launch vehicle
Mass (kg)
RCS (m²)

Purposes: comms

External: N2YO · Heavens-Above · Gunter

§ Orbital elements

Epoch: 2026-05-25T03:04:29.803008Z

Period
94.27 min
Inclination
43.0015°
Eccentricity
0.0001170
Mean motion
15.27596663 rev/d
Perigee alt
482.2 km
Apogee alt
483.8 km
Semi-major
6,861.1 km
B*
-1.2272e-4
RAAN
177.1548°
Arg perigee
283.0245°
Mean anomaly
77.0476°
Rev number
13,077

§ Raw data

STARLINK-312001 58862U 24019K   26145.12812272 -.00003639  00000+0 -12272-3 0  99972 58862  43.0015 177.1548 0001170 283.0245  77.0476 15.27596663130779

JSON: /api/v1/satellites/58862 · /tle

For live sub-satellite position, see the globe view (requires WebGL).

§ Visibility from observer

Set your observer location to see the next 7 days of passes ≥ 10°. The values pass through the URL so the page stays shareable.

No JS? Fill the form by hand. The geolocation button needs JavaScript.